Tracking 18624 objects as of 30-April-2017
HD Live streaming from Space Station
objects crossing your sky now

COSMOS 2315

Track COSMOS 2315 now!
10-day predictions
COSMOS 2315 is classified as:


NORAD ID: 23603
Int'l Code: 1995-032A
Perigee: 972.8 km
Apogee: 1,020.3 km
Inclination: 82.9 °
Period: 104.9 minutes
Semi major axis: 7367 km
RCS: 2.3448 m2 (large)
Launch date: July 5, 1995
Source: Commonwealth of Independent States (former USSR) (CIS)
Launch site: PLESETSK MISSILE AND SPACE COMPLEX (PKMTR)
Your satellite tracking list
Your tracking list is empty





NASA's NSSDC Master Catalog

Two Line Element Set (TLE):
1 23603U 95032A   17118.87471428 +.00000059 +00000-0 +47290-4 0  9992
2 23603 082.9070 207.7665 0032269 122.2330 015.6520 13.72830257092907
Source of the keplerian elements: AFSPC